軌道要素
Epoch 2007 Dec. 6.0 TT = JDT 2454440.5
T 2007 Dec. 13.85452 TT MPCW
q 0.5775199 (2000.0) P Q
n 0.23917568 Peri. 217.66136 +0.82707779 -0.56195364
a 2.5703447 Node 176.46217 +0.55183159 +0.80764423
e 0.7753142 Incl. 11.46452 +0.10688419 +0.17865862
P 4.12
From 333 observations 2012 Jan. 13-2016 Feb. 22, mean residual 4".8.
|